Tracking 28790 objects as of 19-Apr-2024
HD Live streaming from Space Station
objects crossing your sky now

SL-8 R/B

Track SL-8 R/B now!
10-day predictions


NORAD ID: 7434
Int'l Code: 1974-071B
Perigee: 759.2 km
Apogee: 789.3 km
Inclination: 74.0 °
Period: 100.2 minutes
Semi major axis: 7145 km
RCS: 4.4573 m2 (large)
Launch date: September 11, 1974
Source: Commonwealth of Independent States (former USSR) (CIS)
Launch site: PLESETSK MISSILE AND SPACE COMPLEX (PKMTR)

Note: This is a ROCKET BODY
Your satellite tracking list
Your tracking list is empty




NASA's NSSDC Master Catalog

Two Line Element Set (TLE):
1 07434U 74071B   24109.91894136  .00000822  00000-0  28326-3 0  9990
2 07434  74.0452 305.6288 0021021 317.1167  42.8347 14.37391648595133
Source of the keplerian elements: AFSPC